STARLINK-34876, 65400

Orbit data source: Space-Track

STARLINK-34876, 65400 is a payload satellite owned by SpaceX/Seattle (US) in SSO that was launched on Sat, 30 Aug 2025 UTC via an FALCON 9 launch vehicle from the Air Force Western Test Range (AFWTR). Payload-class satellites include a variety of spacecraft equipped with specific instruments for various scientific and technological missions. These include communications satellites like Starlink; space stations such as the ISS; scientific satellites like the Hubble; Earth observation satellites from companies like Planet Labs, Umbra, and HawkEye 360; GPS; miniature CubeSats for education and research; and military/defense satellites.

Loading next visibility...
Identifier
65400, 2025-191X
Orbit
SSO
Country
Flag of USUS
Related business
Manufacturer
SpaceX/Seattle
Mission
Operational Commercial Communications
Bus & Motor
STARLINK V2MO, Unknown motor
Mass
575 kg wet, ~530 kg dry
Launch date (UTC)
2025-08-30 (7 months ago)
Launch vehicle
FALCON 9
Launch site
Air Force Western Test Range (AFWTR)
Object type
Payload
Rocket body
Debris
Shape & HBR
Box + 2 Pan, 17.7 m
Radar Cross Section
36.964 m², Large (>1 m²)

Expand to show TLE details & history
Last TLE update: 15 hours ago

TLE from 15 hours ago
0 STARLINK-34876
1 65400U 25191X   26093.61433201  .00006325  00000-0  44222-3 0  9996
2 65400  97.6010 326.1506 0001569  70.7592 289.3804 15.05644230 34027
Epoch: 2026-04-03T14:44Z
TLE epoch observation values (Epoch: 2026-04-03T14:44:38.285Z)
Latitude
-0.00008°
Longitude
-86.95484°
Altitude
552.233 km
Speed
7.586 km/s
True Right ascension
21h 44m 36s
True Declination
0° 00' 00"
Sunlit
Object was in daylight at epoch
Visualization orbit readout
Latitude
Unknown
Longitude
Unknown
Altitude
Unknown
Speed
Unknown
Apparent Right ascension
Unknown
Apparent Declination
Unknown
Sunlit
N/A
Visualization observer readout
Local Sidereal Time
11:23:08
Azimuth
Unknown
Elevation
Unknown
Doppler factor
Unknown
Orbital elements
Apogee altitude
547.609 km
Perigee altitude
545.436 km
Semi-major axis
6,924.659 km
Eccentricity
0.00016
Inclination
97.601°
RAAN
326.1506°
Arg. of periapsis
70.7592°
True anomaly
289.36344°
Mean anomaly
289.3804°
Eccentric anomaly
289.37192°
Mean motion
3.76657 °/min
Orbital period
95.58 mins
BSTAR
0.00044222
Loading maneuver chart data...
Computing Atmospheric mass density...
Loading historical data...
Loading historical data...
Loading historical data...
Loading historical data...
Loading historical data...
Loading historical data...
Loading historical data...

Documentation

Showing up to 5 results
|